| time (UTC) | temp F | wind direction | speed MPH | gust MPH | rain 1hr in | rain 24hr in | rain mn in | humidity % | barometer mb |
| 20260904024036 | 70 | 245 | 0.0 | 0.0 | 0.09 | 0.51 | 0.46 | 93 | 1013.0 |
| 20260904023542 | 70 | 245 | 0.0 | 0.0 | 0.19 | 0.51 | 0.46 | 93 | 1012.9 |
| 20260904023036 | 70 | 245 | 0.0 | 0.0 | 0.26 | 0.51 | 0.46 | 93 | 1012.8 |
| 20260904022542 | 70 | 245 | 0.0 | 0.0 | 0.35 | 0.51 | 0.46 | 93 | 1013.0 |
| 20260904022034 | 70 | 245 | 0.0 | 0.0 | 0.40 | 0.51 | 0.46 | 93 | 1012.9 |
| 20260904021542 | 70 | 245 | 0.0 | 0.0 | 0.42 | 0.51 | 0.46 | 93 | 1013.0 |
| 20260904021030 | 70 | 245 | 0.0 | 0.0 | 0.42 | 0.50 | 0.45 | 93 | 1013.1 |
| 20260904020546 | 70 | 245 | 0.0 | 0.0 | 0.42 | 0.50 | 0.45 | 92 | 1013.1 |
| 20260904020116 | 70 | 245 | 0.0 | 0.0 | 0.42 | 0.50 | 0.45 | 92 | 1013.0 |
| 20260904015554 | 70 | 245 | 0.0 | 0.0 | 0.42 | 0.54 | 0.45 | 92 | 1013.0 |
| 20260904015036 | 70 | 245 | 0.0 | 0.0 | 0.41 | 0.53 | 0.44 | 92 | 1012.9 |
| 20260904014601 | 70 | 245 | 0.0 | 0.0 | 0.39 | 0.51 | 0.42 | 91 | 1012.8 |
| 20260904014031 | 71 | 255 | 0.0 | 1.0 | 0.33 | 0.45 | 0.36 | 91 | 1013.2 |
| 20260904013538 | 71 | 275 | 0.0 | 3.0 | 0.22 | 0.34 | 0.25 | 91 | 1013.4 |
| 20260904013056 | 71 | 277 | 0.0 | 9.0 | 0.16 | 0.28 | 0.19 | 91 | 1013.3 |
| 20260904012529 | 72 | 305 | 4.0 | 9.0 | 0.07 | 0.19 | 0.10 | 91 | 1013.1 |
| 20260904012056 | 72 | 329 | 2.0 | 7.0 | 0.02 | 0.14 | 0.05 | 91 | 1012.9 |
| 20260904011529 | 73 | 333 | 0.0 | 0.0 | 0.01 | 0.13 | 0.04 | 93 | 1012.9 |
| 20260904011056 | 73 | 38 | 0.0 | 0.0 | 0.00 | 0.12 | 0.03 | 92 | 1012.7 |
| 20260904010530 | 73 | 336 | 0.0 | 0.0 | 0.00 | 0.12 | 0.03 | 92 | 1012.6 |
| 20260904010026 | 73 | 336 | 0.0 | 0.0 | 0.00 | 0.12 | 0.03 | 91 | 1012.6 |
| 20260904005541 | 73 | 335 | 0.0 | 0.0 | 0.00 | 0.55 | 0.03 | 91 | 1012.4 |
| 20260904005051 | 73 | 338 | 0.0 | 0.0 | 0.00 | 0.55 | 0.03 | 91 | 1012.4 |
| 20260904004538 | 73 | 338 | 0.0 | 0.0 | 0.00 | 0.55 | 0.03 | 91 | 1012.6 |
| 20260904004041 | 73 | 338 | 0.0 | 0.0 | 0.00 | 0.55 | 0.03 | 91 | 1012.5 |
| 20260904003543 | 73 | 338 | 0.0 | 0.0 | 0.00 | 0.55 | 0.03 | 90 | 1012.4 |
| 20260904003047 | 73 | 338 | 0.0 | 0.0 | 0.00 | 0.55 | 0.03 | 90 | 1012.4 |
| 20260904002536 | 73 | 338 | 0.0 | 0.0 | 0.00 | 0.55 | 0.03 | 90 | 1012.6 |
| 20260904002044 | 73 | 338 | 0.0 | 0.0 | 0.00 | 0.55 | 0.03 | 90 | 1012.6 |
| 20260904001537 | 74 | 338 | 0.0 | 0.0 | 0.00 | 0.55 | 0.03 | 90 | 1012.6 |
| 20260904001043 | 74 | 338 | 0.0 | 0.0 | 0.00 | 0.55 | 0.03 | 90 | 1012.5 |
| 20260904000541 | 74 | 338 | 0.0 | 0.0 | 0.00 | 0.55 | 0.03 | 90 | 1012.5 |
| 20260904000029 | 74 | 338 | 0.0 | 0.0 | 0.00 | 0.55 | 0.03 | 90 | 1012.5 |
| 20260903235542 | 74 | 338 | 0.0 | 0.0 | 0.00 | 1.72 | 0.03 | 90 | 1012.5 |
| 20260903235028 | 74 | 338 | 0.0 | 0.0 | 0.00 | 1.72 | 0.03 | 90 | 1012.4 |
| 20260903234543 | 74 | 338 | 0.0 | 0.0 | 0.00 | 1.72 | 0.03 | 90 | 1012.5 |
| 20260903234030 | 74 | 338 | 0.0 | 0.0 | 0.00 | 1.72 | 0.03 | 90 | 1012.4 |
| 20260903233615 | 74 | 338 | 0.0 | 0.0 | 0.00 | 1.72 | 0.03 | 90 | 1012.5 |
| 20260903232550 | 75 | 338 | 0.0 | 0.0 | 0.00 | 1.72 | 0.03 | 89 | 1012.6 |
| 20260903232030 | 75 | 338 | 0.0 | 0.0 | 0.00 | 1.72 | 0.03 | 89 | 1012.6 |
| 20260903231541 | 75 | 338 | 0.0 | 0.0 | 0.00 | 1.72 | 0.03 | 89 | 1012.6 |
| 20260903231042 | 75 | 338 | 0.0 | 0.0 | 0.00 | 1.72 | 0.03 | 89 | 1012.5 |
| 20260903230557 | 75 | 338 | 0.0 | 0.0 | 0.00 | 1.72 | 0.03 | 89 | 1012.6 |
| 20260903230043 | 75 | 338 | 0.0 | 0.0 | 0.00 | 1.72 | 0.03 | 90 | 1012.6 |
| 20260903225551 | 75 | 338 | 0.0 | 0.0 | 0.00 | 1.72 | 0.03 | 90 | 1012.5 |
| 20260903225031 | 75 | 338 | 0.0 | 0.0 | 0.00 | 1.72 | 0.03 | 89 | 1012.5 |
| 20260903224528 | 75 | 338 | 0.0 | 0.0 | 0.00 | 1.72 | 0.03 | 89 | 1012.6 |
| 20260903224033 | 75 | 338 | 0.0 | 0.0 | 0.00 | 1.72 | 0.03 | 89 | 1012.5 |
| 20260903223531 | 75 | 338 | 0.0 | 0.0 | 0.00 | 1.72 | 0.03 | 89 | 1012.3 |
| 20260903223039 | 75 | 338 | 0.0 | 0.0 | 0.00 | 1.72 | 0.03 | 90 | 1012.3 |
| 20260903222532 | 75 | 338 | 0.0 | 2.0 | 0.00 | 1.72 | 0.03 | 90 | 1012.5 |
| 20260903222105 | 75 | 338 | 0.0 | 3.0 | 0.00 | 1.72 | 0.03 | 90 | 1012.2 |
| 20260903221527 | 76 | 355 | 1.0 | 3.0 | 0.00 | 1.72 | 0.03 | 89 | 1012.1 |
| 20260903221034 | 76 | 355 | 0.0 | 0.0 | 0.02 | 1.72 | 0.03 | 90 | 1012.1 |
| 20260903220557 | 76 | 355 | 0.0 | 0.0 | 0.02 | 1.72 | 0.03 | 90 | 1012.0 |
| 20260903220029 | 76 | 355 | 0.0 | 4.0 | 0.02 | 1.72 | 0.03 | 90 | 1012.1 |
| 20260903215556 | 76 | 355 | 1.0 | 4.0 | 0.02 | 1.72 | 0.03 | 89 | 1012.2 |
| 20260903215033 | 77 | 309 | 0.0 | 0.0 | 0.02 | 1.72 | 0.03 | 89 | 1012.2 |
| 20260903214529 | 77 | 301 | 0.0 | 0.0 | 0.02 | 1.72 | 0.03 | 88 | 1012.2 |
| 20260903214035 | 77 | 301 | 0.0 | 0.0 | 0.02 | 1.72 | 0.03 | 87 | 1012.1 |
| 20260903213612 | 77 | 301 | 0.0 | 4.0 | 0.02 | 1.72 | 0.03 | 87 | 1012.3 |
| 20260903213039 | 77 | 329 | 0.0 | 5.0 | 0.02 | 1.72 | 0.03 | 86 | 1012.3 |
| 20260903212549 | 78 | 336 | 2.0 | 5.0 | 0.02 | 1.72 | 0.03 | 86 | 1012.2 |
| 20260903212046 | 78 | 338 | 2.0 | 4.0 | 0.02 | 1.72 | 0.03 | 85 | 1012.1 |
| 20260903211558 | 79 | 311 | 1.0 | 4.0 | 0.02 | 1.72 | 0.03 | 85 | 1012.2 |
| 20260903211043 | 79 | 272 | 0.0 | 5.0 | 0.00 | 1.70 | 0.01 | 84 | 1012.2 |
| 20260903210526 | 79 | 329 | 1.0 | 5.0 | 0.00 | 1.70 | 0.01 | 84 | 1012.1 |
| 20260903210106 | 79 | 268 | 1.0 | 3.0 | 0.00 | 1.70 | 0.01 | 84 | 1012.1 |
| 20260903205543 | 79 | 283 | 1.0 | 6.0 | 0.00 | 1.70 | 0.01 | 83 | 1012.1 |
| 20260903205048 | 79 | 346 | 4.0 | 7.0 | 0.00 | 1.70 | 0.01 | 82 | 1012.0 |
| 20260903204616 | 80 | 335 | 5.0 | 9.0 | 0.00 | 1.70 | 0.01 | 81 | 1012.2 |
| 20260903204027 | 80 | 340 | 5.0 | 9.0 | 0.00 | 1.70 | 0.01 | 81 | 1012.2 |
| 20260903203526 | 80 | 331 | 5.0 | 7.0 | 0.00 | 1.70 | 0.01 | 80 | 1012.1 |
| 20260903203036 | 81 | 336 | 1.0 | 6.0 | 0.00 | 1.70 | 0.01 | 81 | 1012.0 |
| 20260903202544 | 81 | 341 | 3.0 | 6.0 | 0.00 | 1.70 | 0.01 | 80 | 1012.1 |
| 20260903202048 | 81 | 338 | 3.0 | 6.0 | 0.00 | 1.70 | 0.01 | 80 | 1012.0 |
| 20260903201542 | 81 | 332 | 3.0 | 6.0 | 0.00 | 1.70 | 0.01 | 78 | 1012.1 |
| 20260903201028 | 80 | 333 | 2.0 | 5.0 | 0.00 | 1.70 | 0.01 | 79 | 1012.2 |
| 20260903200534 | 80 | 328 | 1.0 | 4.0 | 0.00 | 1.70 | 0.01 | 79 | 1012.2 |
| 20260903200041 | 80 | 330 | 1.0 | 4.0 | 0.00 | 1.70 | 0.01 | 80 | 1012.2 |
| 20260903195532 | 80 | 269 | 0.0 | 1.0 | 0.00 | 1.70 | 0.01 | 79 | 1012.3 |
| 20260903195042 | 81 | 269 | 0.0 | 2.0 | 0.00 | 1.70 | 0.01 | 78 | 1012.3 |
| 20260903194531 | 81 | 269 | 1.0 | 4.0 | 0.00 | 1.70 | 0.01 | 78 | 1012.4 |
| 20260903194030 | 81 | 270 | 2.0 | 4.0 | 0.00 | 1.70 | 0.01 | 78 | 1012.4 |
| 20260903193603 | 81 | 324 | 0.0 | 4.0 | 0.00 | 1.70 | 0.01 | 76 | 1012.2 |
| 20260903193046 | 81 | 321 | 2.0 | 4.0 | 0.00 | 1.70 | 0.01 | 78 | 1012.4 |
| 20260903192537 | 81 | 334 | 1.0 | 4.0 | 0.00 | 1.70 | 0.01 | 77 | 1012.4 |
| 20260903192100 | 82 | 272 | 0.0 | 2.0 | 0.00 | 1.70 | 0.01 | 77 | 1012.4 |
| 20260903191550 | 82 | 272 | 0.0 | 3.0 | 0.00 | 1.70 | 0.01 | 75 | 1012.3 |
| 20260903191025 | 82 | 272 | 0.0 | 3.0 | 0.00 | 1.70 | 0.01 | 74 | 1012.5 |
| 20260903190549 | 82 | 275 | 0.0 | 1.0 | 0.00 | 1.70 | 0.01 | 73 | 1012.4 |
| 20260903190051 | 83 | 275 | 0.0 | 3.0 | 0.00 | 1.70 | 0.01 | 72 | 1012.4 |
| 20260903185547 | 83 | 275 | 0.0 | 3.0 | 0.00 | 1.70 | 0.01 | 71 | 1012.6 |
| 20260903185050 | 83 | 274 | 0.0 | 3.0 | 0.00 | 1.70 | 0.01 | 71 | 1012.6 |
| 20260903184605 | 83 | 274 | 0.0 | 3.0 | 0.00 | 1.70 | 0.01 | 70 | 1012.6 |
| 20260903184042 | 83 | 274 | 0.0 | 4.0 | 0.00 | 1.70 | 0.01 | 70 | 1012.6 |
| 20260903183538 | 84 | 257 | 1.0 | 4.0 | 0.00 | 1.70 | 0.01 | 71 | 1012.7 |
| 20260903183050 | 83 | 281 | 0.0 | 2.0 | 0.00 | 1.70 | 0.01 | 72 | 1012.8 |
| 20260903182525 | 83 | 265 | 0.0 | 1.0 | 0.00 | 1.70 | 0.01 | 72 | 1012.8 |
| 20260903182054 | 83 | 265 | 0.0 | 4.0 | 0.00 | 1.70 | 0.01 | 70 | 1012.8 |
| 20260903181531 | 83 | 250 | 0.0 | 4.0 | 0.00 | 1.70 | 0.01 | 70 | 1012.7 |
| 20260903181050 | 83 | 260 | 0.0 | 3.0 | 0.00 | 1.70 | 0.01 | 72 | 1012.7 |
| 20260903180548 | 83 | 260 | 1.0 | 4.0 | 0.00 | 1.70 | 0.01 | 69 | 1012.8 |
| 20260903180034 | 83 | 273 | 1.0 | 6.0 | 0.00 | 1.70 | 0.01 | 73 | 1012.8 |
| 20260903175550 | 83 | 284 | 1.0 | 6.0 | 0.00 | 1.70 | 0.01 | 70 | 1012.8 |
| 20260903175041 | 83 | 274 | 1.0 | 3.0 | 0.00 | 1.70 | 0.01 | 71 | 1012.9 |
| 20260903174525 | 83 | 259 | 1.0 | 3.0 | 0.00 | 1.70 | 0.01 | 72 | 1012.9 |
| 20260903174037 | 83 | 268 | 0.0 | 8.0 | 0.00 | 1.70 | 0.01 | 71 | 1012.9 |
| 20260903173531 | 82 | 278 | 1.0 | 8.0 | 0.01 | 1.70 | 0.01 | 70 | 1012.9 |
| 20260903173039 | 82 | 246 | 0.0 | 6.0 | 0.01 | 1.70 | 0.01 | 71 | 1012.9 |
| 20260903172543 | 82 | 246 | 1.0 | 6.0 | 0.01 | 1.70 | 0.01 | 72 | 1012.9 |
| 20260903172045 | 82 | 261 | 2.0 | 6.0 | 0.01 | 1.70 | 0.01 | 69 | 1012.9 |
| 20260903171548 | 82 | 275 | 3.0 | 6.0 | 0.01 | 1.70 | 0.01 | 70 | 1013.1 |
| 20260903171031 | 82 | 277 | 1.0 | 4.0 | 0.01 | 1.70 | 0.01 | 70 | 1013.0 |
| 20260903170551 | 82 | 296 | 2.0 | 4.0 | 0.01 | 1.70 | 0.01 | 69 | 1013.1 |
| 20260903170031 | 81 | 290 | 1.0 | 4.0 | 0.01 | 1.70 | 0.01 | 74 | 1013.2 |
| 20260903165538 | 81 | 279 | 0.0 | 4.0 | 0.01 | 1.70 | 0.01 | 71 | 1013.2 |
| 20260903165021 | 81 | 278 | 1.0 | 4.0 | 0.01 | 1.70 | 0.01 | 72 | 1013.1 |
| 20260903164531 | 81 | 284 | 1.0 | 4.0 | 0.01 | 1.70 | 0.01 | 72 | 1013.1 |
| 20260903164108 | 81 | 273 | 0.0 | 2.0 | 0.01 | 1.70 | 0.01 | 72 | 1013.2 |
| 20260903163554 | 80 | 271 | 0.0 | 1.0 | 0.00 | 1.69 | 0.00 | 75 | 1013.2 |
| 20260903163026 | 80 | 271 | 0.0 | 2.0 | 0.00 | 1.69 | 0.00 | 73 | 1013.2 |
| 20260903162616 | 80 | 272 | 0.0 | 3.0 | 0.00 | 1.69 | 0.00 | 73 | 1013.4 |
| 20260903162026 | 79 | 272 | 1.0 | 4.0 | 0.00 | 1.69 | 0.00 | 74 | 1013.4 |
| 20260903161527 | 79 | 286 | 0.0 | 4.0 | 0.00 | 1.69 | 0.00 | 75 | 1013.4 |
| 20260903161030 | 79 | 286 | 2.0 | 4.0 | 0.00 | 1.69 | 0.00 | 74 | 1013.5 |
| 20260903160528 | 79 | 283 | 1.0 | 7.0 | 0.00 | 1.69 | 0.00 | 75 | 1013.7 |
| 20260903160030 | 79 | 247 | 0.0 | 4.0 | 0.00 | 1.69 | 0.00 | 77 | 1013.7 |
| 20260903155527 | 79 | 275 | 1.0 | 4.0 | 0.00 | 1.69 | 0.00 | 77 | 1013.8 |
| 20260903155034 | 78 | 281 | 0.0 | 3.0 | 0.00 | 1.69 | 0.00 | 79 | 1013.8 |
| 20260903154544 | 78 | 281 | 0.0 | 3.0 | 0.00 | 1.69 | 0.00 | 79 | 1013.8 |
| 20260903154036 | 77 | 274 | 1.0 | 5.0 | 0.00 | 1.69 | 0.00 | 82 | 1013.8 |
| 20260903153602 | 77 | 275 | 1.0 | 5.0 | 0.00 | 1.69 | 0.00 | 84 | 1013.9 |
| 20260903153026 | 77 | 261 | 0.0 | 4.0 | 0.00 | 1.69 | 0.00 | 88 | 1013.8 |
| 20260903152536 | 76 | 272 | 0.0 | 4.0 | 0.00 | 1.69 | 0.00 | 90 | 1013.8 |
| 20260903152027 | 76 | 272 | 1.0 | 4.0 | 0.00 | 1.69 | 0.00 | 92 | 1013.7 |
| 20260903151554 | 75 | 270 | 0.0 | 2.0 | 0.00 | 1.69 | 0.00 | 93 | 1013.8 |
| 20260903151050 | 75 | 269 | 0.0 | 4.0 | 0.00 | 1.69 | 0.00 | 94 | 1013.8 |
| 20260903150532 | 75 | 273 | 1.0 | 7.0 | 0.00 | 1.69 | 0.00 | 95 | 1013.9 |
| 20260903150034 | 75 | 284 | 2.0 | 7.0 | 0.00 | 1.69 | 0.00 | 95 | 1014.0 |
| 20260903145547 | 74 | 286 | 2.0 | 6.0 | 0.00 | 1.69 | 0.00 | 96 | 1014.0 |
| 20260903145032 | 74 | 267 | 0.0 | 4.0 | 0.00 | 1.69 | 0.00 | 96 | 1014.0 |
| 20260903144536 | 74 | 267 | 1.0 | 4.0 | 0.00 | 1.69 | 0.00 | 97 | 1014.0 |
| 20260903144105 | 73 | 273 | 1.0 | 4.0 | 0.00 | 1.69 | 0.00 | 97 | 1014.0 |
| 20260903143620 | 73 | 267 | 0.0 | 3.0 | 0.00 | 1.69 | 0.00 | 97 | 1013.9 |
| 20260903143029 | 73 | 275 | 1.0 | 3.0 | 0.00 | 1.69 | 0.00 | 96 | 1014.0 |
| 20260903142603 | 73 | 242 | 0.0 | 3.0 | 0.00 | 1.69 | 0.00 | 97 | 1014.0 |
| 20260903142036 | 73 | 281 | 0.0 | 2.0 | 0.00 | 1.69 | 0.00 | 97 | 1013.9 |
| 20260903141603 | 73 | 275 | 0.0 | 1.0 | 0.00 | 1.69 | 0.00 | 97 | 1013.9 |
| 20260903141048 | 73 | 275 | 0.0 | 1.0 | 0.00 | 1.69 | 0.00 | 97 | 1013.8 |
| 20260903140537 | 72 | 275 | 0.0 | 1.0 | 0.00 | 1.69 | 0.00 | 97 | 1013.7 |
| 20260903140036 | 72 | 284 | 0.0 | 1.0 | 0.00 | 1.69 | 0.00 | 97 | 1013.8 |
| 20260903135537 | 72 | 274 | 0.0 | 3.0 | 0.00 | 1.84 | 0.00 | 97 | 1013.8 |
| 20260903135047 | 72 | 274 | 0.0 | 3.0 | 0.00 | 1.84 | 0.00 | 97 | 1013.9 |
| 20260903134528 | 72 | 279 | 0.0 | 0.0 | 0.00 | 1.84 | 0.00 | 97 | 1013.9 |
| 20260903134041 | 72 | 279 | 0.0 | 0.0 | 0.00 | 1.84 | 0.00 | 97 | 1013.9 |
| 20260903133551 | 72 | 268 | 0.0 | 0.0 | 0.00 | 1.84 | 0.00 | 97 | 1013.9 |
| 20260903133039 | 72 | 268 | 0.0 | 0.0 | 0.00 | 1.84 | 0.00 | 97 | 1013.9 |
| 20260903132536 | 72 | 268 | 0.0 | 0.0 | 0.00 | 1.84 | 0.00 | 97 | 1013.9 |
| 20260903132027 | 71 | 231 | 0.0 | 0.0 | 0.00 | 1.84 | 0.00 | 97 | 1014.0 |
| 20260903131548 | 71 | 198 | 0.0 | 0.0 | 0.00 | 1.84 | 0.00 | 97 | 1014.0 |
| 20260903131045 | 71 | 198 | 0.0 | 0.0 | 0.00 | 1.84 | 0.00 | 97 | 1014.1 |
| 20260903130539 | 71 | 198 | 0.0 | 0.0 | 0.00 | 1.84 | 0.00 | 97 | 1014.1 |
| 20260903130040 | 70 | 198 | 0.0 | 0.0 | 0.00 | 1.84 | 0.00 | 97 | 1014.1 |
| 20260903125553 | 70 | 198 | 0.0 | 0.0 | 0.00 | 1.89 | 0.00 | 97 | 1014.1 |
| 20260903125044 | 70 | 198 | 0.0 | 0.0 | 0.00 | 1.89 | 0.00 | 97 | 1014.2 |
| 20260903124556 | 70 | 197 | 0.0 | 0.0 | 0.00 | 1.89 | 0.00 | 97 | 1014.2 |
| 20260903124033 | 70 | 197 | 0.0 | 0.0 | 0.00 | 1.89 | 0.00 | 97 | 1014.0 |
| 20260903123559 | 70 | 197 | 0.0 | 0.0 | 0.00 | 1.89 | 0.00 | 97 | 1014.0 |
| 20260903123036 | 70 | 197 | 0.0 | 0.0 | 0.00 | 1.89 | 0.00 | 97 | 1014.1 |
| 20260903122559 | 70 | 197 | 0.0 | 0.0 | 0.00 | 1.89 | 0.00 | 97 | 1014.1 |
| 20260903122048 | 70 | 197 | 0.0 | 0.0 | 0.00 | 1.89 | 0.00 | 97 | 1014.0 |
| 20260903121541 | 69 | 197 | 0.0 | 0.0 | 0.00 | 1.89 | 0.00 | 97 | 1013.9 |
| 20260903121051 | 69 | 197 | 0.0 | 0.0 | 0.00 | 1.89 | 0.00 | 97 | 1013.7 |
| 20260903120540 | 69 | 140 | 0.0 | 0.0 | 0.00 | 1.89 | 0.00 | 97 | 1013.6 |
| 20260903120047 | 69 | 140 | 0.0 | 0.0 | 0.00 | 1.89 | 0.00 | 97 | 1013.5 |
| 20260903115531 | 69 | 140 | 0.0 | 0.0 | 0.00 | 1.89 | 0.00 | 97 | 1013.6 |
| 20260903115055 | 69 | 140 | 0.0 | 0.0 | 0.00 | 1.89 | 0.00 | 97 | 1013.7 |
| 20260903114543 | 69 | 140 | 0.0 | 0.0 | 0.00 | 1.89 | 0.00 | 97 | 1013.6 |
| 20260903114037 | 69 | 140 | 0.0 | 0.0 | 0.00 | 1.89 | 0.00 | 97 | 1013.6 |
| 20260903113043 | 68 | 140 | 0.0 | 0.0 | 0.00 | 1.89 | 0.00 | 97 | 1013.3 |
| 20260903112549 | 68 | 140 | 0.0 | 0.0 | 0.00 | 1.89 | 0.00 | 97 | 1013.3 |
| 20260903112107 | 68 | 140 | 0.0 | 0.0 | 0.00 | 1.89 | 0.00 | 97 | 1013.2 |
| 20260903111600 | 68 | 140 | 0.0 | 0.0 | 0.00 | 1.89 | 0.00 | 96 | 1013.1 |
| 20260903111040 | 68 | 140 | 0.0 | 0.0 | 0.00 | 1.89 | 0.00 | 96 | 1013.2 |
| 20260903110602 | 67 | 140 | 0.0 | 0.0 | 0.00 | 1.89 | 0.00 | 96 | 1013.2 |
| 20260903110041 | 67 | 140 | 0.0 | 0.0 | 0.00 | 1.89 | 0.00 | 96 | 1013.1 |
| 20260903105537 | 67 | 140 | 0.0 | 0.0 | 0.00 | 1.89 | 0.00 | 96 | 1013.0 |
| 20260903105027 | 67 | 140 | 0.0 | 0.0 | 0.00 | 1.89 | 0.00 | 96 | 1013.0 |
| 20260903104547 | 67 | 140 | 0.0 | 0.0 | 0.00 | 1.89 | 0.00 | 96 | 1012.9 |
| 20260903104038 | 67 | 140 | 0.0 | 0.0 | 0.00 | 1.89 | 0.00 | 96 | 1012.9 |
| 20260903103522 | 67 | 140 | 0.0 | 0.0 | 0.00 | 1.89 | 0.00 | 96 | 1012.8 |
| 20260903103053 | 67 | 140 | 0.0 | 0.0 | 0.00 | 1.89 | 0.00 | 96 | 1012.8 |
| 20260903102538 | 67 | 140 | 0.0 | 0.0 | 0.00 | 1.89 | 0.00 | 96 | 1012.7 |
| 20260903102029 | 68 | 140 | 0.0 | 0.0 | 0.00 | 1.89 | 0.00 | 96 | 1012.7 |
| 20260903101533 | 68 | 140 | 0.0 | 0.0 | 0.00 | 1.89 | 0.00 | 96 | 1012.5 |
| 20260903101031 | 68 | 140 | 0.0 | 0.0 | 0.00 | 1.89 | 0.00 | 96 | 1012.6 |
| 20260903100541 | 68 | 140 | 0.0 | 0.0 | 0.00 | 1.89 | 0.00 | 96 | 1012.6 |
| 20260903100039 | 68 | 140 | 0.0 | 0.0 | 0.00 | 1.89 | 0.00 | 96 | 1012.7 |
| 20260903095543 | 68 | 140 | 0.0 | 0.0 | 0.00 | 1.89 | 0.00 | 96 | 1012.6 |
| 20260903095037 | 68 | 140 | 0.0 | 0.0 | 0.00 | 1.89 | 0.00 | 96 | 1012.7 |
| 20260903094541 | 68 | 140 | 0.0 | 0.0 | 0.00 | 1.89 | 0.00 | 96 | 1012.7 |
| 20260903094049 | 68 | 140 | 0.0 | 0.0 | 0.00 | 1.89 | 0.00 | 96 | 1012.7 |
| 20260903093530 | 68 | 140 | 0.0 | 0.0 | 0.00 | 1.89 | 0.00 | 96 | 1012.6 |
| 20260903093035 | 68 | 140 | 0.0 | 0.0 | 0.00 | 1.89 | 0.00 | 96 | 1012.6 |
| 20260903092526 | 68 | 140 | 0.0 | 0.0 | 0.00 | 1.89 | 0.00 | 96 | 1012.6 |
| 20260903092028 | 68 | 140 | 0.0 | 0.0 | 0.00 | 1.89 | 0.00 | 96 | 1012.7 |
| 20260903091526 | 68 | 140 | 0.0 | 0.0 | 0.00 | 1.89 | 0.00 | 96 | 1012.7 |
| 20260903091029 | 68 | 140 | 0.0 | 0.0 | 0.00 | 1.89 | 0.00 | 96 | 1012.7 |
| 20260903090536 | 68 | 140 | 0.0 | 0.0 | 0.00 | 1.89 | 0.00 | 96 | 1012.8 |
| 20260903090026 | 68 | 140 | 0.0 | 0.0 | 0.00 | 1.89 | 0.00 | 96 | 1012.8 |
| 20260903085531 | 68 | 140 | 0.0 | 0.0 | 0.00 | 1.89 | 0.00 | 96 | 1012.7 |
| 20260903085059 | 68 | 140 | 0.0 | 0.0 | 0.00 | 1.89 | 0.00 | 96 | 1012.7 |
| 20260903084526 | 68 | 140 | 0.0 | 0.0 | 0.00 | 1.89 | 0.00 | 96 | 1012.7 |
| 20260903084044 | 68 | 140 | 0.0 | 0.0 | 0.00 | 1.89 | 0.00 | 96 | 1012.7 |
| 20260903083550 | 68 | 140 | 0.0 | 0.0 | 0.00 | 1.89 | 0.00 | 96 | 1012.6 |
| 20260903083051 | 68 | 140 | 0.0 | 0.0 | 0.00 | 1.89 | 0.00 | 96 | 1012.5 |
| 20260903082544 | 68 | 140 | 0.0 | 0.0 | 0.00 | 1.89 | 0.00 | 96 | 1012.4 |
| 20260903082104 | 68 | 140 | 0.0 | 0.0 | 0.00 | 1.89 | 0.00 | 96 | 1012.4 |
| 20260903081550 | 68 | 140 | 0.0 | 0.0 | 0.00 | 1.89 | 0.00 | 96 | 1012.5 |
| 20260903081051 | 68 | 140 | 0.0 | 0.0 | 0.00 | 1.89 | 0.00 | 96 | 1012.6 |
| 20260903080535 | 68 | 140 | 0.0 | 0.0 | 0.00 | 1.89 | 0.00 | 96 | 1012.4 |
| 20260903080053 | 69 | 140 | 0.0 | 0.0 | 0.00 | 1.89 | 0.00 | 96 | 1012.4 |
| 20260903075549 | 69 | 140 | 0.0 | 0.0 | 0.00 | 1.89 | 0.00 | 96 | 1012.4 |
| 20260903075033 | 69 | 140 | 0.0 | 0.0 | 0.00 | 1.89 | 0.00 | 96 | 1012.4 |
| 20260903074534 | 69 | 140 | 0.0 | 0.0 | 0.00 | 1.89 | 0.00 | 96 | 1012.4 |
| 20260903074057 | 69 | 140 | 0.0 | 0.0 | 0.00 | 1.89 | 0.00 | 96 | 1012.4 |
| 20260903073529 | 69 | 140 | 0.0 | 0.0 | 0.00 | 1.89 | 0.00 | 96 | 1012.4 |
| 20260903073045 | 69 | 141 | 0.0 | 0.0 | 0.00 | 1.89 | 0.00 | 96 | 1012.5 |
| 20260903072531 | 69 | 208 | 0.0 | 0.0 | 0.00 | 1.89 | 0.00 | 96 | 1012.5 |
| 20260903072029 | 69 | 208 | 0.0 | 0.0 | 0.00 | 1.89 | 0.00 | 96 | 1012.7 |
| 20260903071525 | 69 | 208 | 0.0 | 0.0 | 0.00 | 1.89 | 0.00 | 96 | 1012.7 |
| 20260903071033 | 69 | 208 | 0.0 | 0.0 | 0.00 | 1.89 | 0.00 | 96 | 1012.6 |
| 20260903070529 | 69 | 208 | 0.0 | 0.0 | 0.00 | 1.89 | 0.00 | 96 | 1012.6 |
| 20260903070033 | 69 | 208 | 0.0 | 0.0 | 0.00 | 1.89 | 0.00 | 96 | 1012.5 |
| 20260903065550 | 69 | 208 | 0.0 | 0.0 | 0.00 | 1.89 | 0.00 | 96 | 1012.5 |
| 20260903065026 | 69 | 208 | 0.0 | 0.0 | 0.00 | 1.89 | 0.00 | 96 | 1012.6 |
| 20260903064553 | 69 | 208 | 0.0 | 0.0 | 0.00 | 1.89 | 0.00 | 96 | 1012.7 |
| 20260903064030 | 69 | 208 | 0.0 | 0.0 | 0.00 | 1.89 | 0.00 | 96 | 1012.6 |
| 20260903063554 | 69 | 208 | 0.0 | 0.0 | 0.00 | 1.89 | 0.00 | 96 | 1012.6 |
| 20260903063038 | 69 | 208 | 0.0 | 0.0 | 0.00 | 1.89 | 0.00 | 96 | 1012.5 |
| 20260903062540 | 69 | 208 | 0.0 | 0.0 | 0.00 | 1.89 | 0.00 | 96 | 1012.5 |
| 20260903062031 | 69 | 208 | 0.0 | 0.0 | 0.00 | 1.89 | 0.00 | 96 | 1012.6 |
| 20260903061539 | 69 | 208 | 0.0 | 0.0 | 0.00 | 1.89 | 0.00 | 96 | 1012.7 |
| 20260903061045 | 69 | 208 | 0.0 | 0.0 | 0.00 | 1.89 | 0.00 | 96 | 1012.7 |
| 20260903060526 | 69 | 208 | 0.0 | 0.0 | 0.00 | 1.89 | 0.00 | 96 | 1012.8 |
| 20260903060044 | 69 | 208 | 0.0 | 0.0 | 0.00 | 1.89 | 0.00 | 96 | 1012.7 |
| 20260903055532 | 69 | 208 | 0.0 | 0.0 | 0.00 | 1.89 | 0.00 | 96 | 1012.7 |
| 20260903055030 | 69 | 208 | 0.0 | 0.0 | 0.00 | 1.89 | 0.00 | 96 | 1012.9 |
| 20260903054554 | 69 | 208 | 0.0 | 0.0 | 0.00 | 1.89 | 0.00 | 96 | 1012.7 |
| 20260903054048 | 69 | 208 | 0.0 | 0.0 | 0.00 | 1.89 | 0.00 | 96 | 1012.7 |
| 20260903053533 | 69 | 208 | 0.0 | 0.0 | 0.00 | 1.89 | 0.00 | 95 | 1012.6 |
| 20260903053034 | 69 | 208 | 0.0 | 0.0 | 0.00 | 1.89 | 0.00 | 96 | 1012.4 |
| 20260903052534 | 69 | 208 | 0.0 | 0.0 | 0.00 | 1.89 | 0.00 | 95 | 1012.3 |
| 20260903052032 | 69 | 208 | 0.0 | 0.0 | 0.00 | 1.89 | 0.00 | 95 | 1012.3 |
| 20260903051557 | 69 | 208 | 0.0 | 0.0 | 0.00 | 1.89 | 0.00 | 95 | 1012.4 |
| 20260903051035 | 69 | 208 | 0.0 | 0.0 | 0.00 | 1.89 | 0.00 | 96 | 1012.5 |
| 20260903050409 | 69 | 208 | 0.0 | 0.0 | 0.00 | 1.89 | 0.00 | 96 | 1012.3 |
| 20260903045919 | 69 | 208 | 0.0 | 0.0 | 0.00 | 1.89 | 0.00 | 96 | 1012.2 |
| 20260903045411 | 69 | 208 | 0.0 | 0.0 | 0.00 | 1.89 | 0.00 | 96 | 1012.1 |
| 20260903044913 | 69 | 208 | 0.0 | 0.0 | 0.00 | 1.89 | 0.00 | 95 | 1012.1 |
| 20260903044435 | 69 | 208 | 0.0 | 0.0 | 0.00 | 1.89 | 0.00 | 96 | 1012.2 |
| 20260903043911 | 69 | 208 | 0.0 | 0.0 | 0.00 | 1.89 | 0.00 | 96 | 1012.1 |
| 20260903043439 | 69 | 208 | 0.0 | 0.0 | 0.00 | 1.89 | 0.00 | 95 | 1012.1 |
| 20260903042914 | 69 | 208 | 0.0 | 0.0 | 0.00 | 1.89 | 0.00 | 95 | 1012.1 |
| 20260903042415 | 69 | 208 | 0.0 | 0.0 | 0.00 | 1.89 | 0.00 | 95 | 1011.8 |
| 20260903041909 | 69 | 208 | 0.0 | 0.0 | 0.00 | 1.89 | 0.00 | 95 | 1012.0 |
| 20260903041414 | 69 | 208 | 0.0 | 0.0 | 0.00 | 1.89 | 0.00 | 95 | 1011.9 |
| 20260903040922 | 69 | 208 | 0.0 | 0.0 | 0.00 | 1.89 | 0.00 | 95 | 1011.8 |
| 20260903040415 | 69 | 208 | 0.0 | 0.0 | 0.00 | 1.89 | 0.00 | 95 | 1011.8 |
| 20260903035905 | 69 | 208 | 0.0 | 0.0 | 0.01 | 1.89 | 1.89 | 95 | 1012.0 |
| 20260903035416 | 69 | 208 | 0.0 | 0.0 | 0.01 | 1.89 | 1.89 | 95 | 1012.0 |
| 20260903034916 | 69 | 208 | 0.0 | 0.0 | 0.02 | 1.89 | 1.89 | 95 | 1012.1 |
| 20260903034421 | 69 | 208 | 0.0 | 0.0 | 0.02 | 1.89 | 1.89 | 95 | 1012.2 |
| 20260903033927 | 69 | 208 | 0.0 | 0.0 | 0.03 | 1.89 | 1.89 | 95 | 1012.4 |
| 20260903033419 | 70 | 208 | 0.0 | 0.0 | 0.03 | 1.89 | 1.89 | 95 | 1012.4 |
| 20260903032919 | 70 | 208 | 0.0 | 0.0 | 0.03 | 1.89 | 1.89 | 95 | 1012.5 |
| 20260903032425 | 70 | 208 | 0.0 | 0.0 | 0.03 | 1.89 | 1.89 | 95 | 1012.5 |
| 20260903031943 | 69 | 208 | 0.0 | 0.0 | 0.03 | 1.89 | 1.89 | 95 | 1012.5 |
| 20260903031427 | 69 | 208 | 0.0 | 0.0 | 0.03 | 1.89 | 1.89 | 95 | 1012.7 |
| 20260903030917 | 69 | 208 | 0.0 | 0.0 | 0.03 | 1.89 | 1.89 | 95 | 1012.5 |
| 20260903030424 | 69 | 208 | 0.0 | 0.0 | 0.04 | 1.89 | 1.89 | 95 | 1012.8 |
| 20260903025949 | 69 | 208 | 0.0 | 0.0 | 0.04 | 1.88 | 1.88 | 95 | 1013.0 |
| 20260903025419 | 69 | 208 | 0.0 | 0.0 | 0.04 | 1.88 | 1.88 | 95 | 1012.8 |
| 20260903024938 | 69 | 209 | 0.0 | 0.0 | 0.03 | 1.87 | 1.87 | 95 | 1012.9 |
| 20260903024411 | 69 | 165 | 0.0 | 0.0 | 0.03 | 1.87 | 1.87 | 95 | 1012.9 |